Tracking 19709 objects as of 17-Jun-2019
HD Live streaming from Space Station
objects crossing your sky now

DELTA 1 DEB

Track DELTA 1 DEB now!
10-day predictions


NORAD ID: 7142
Int'l Code: 1973-086DG
Perigee: 1,512.6 km
Apogee: 1,584.0 km
Inclination: 101.9 °
Period: 116.9 minutes
Semi major axis: 7919 km
RCS: 0.1846 m2 (medium)
Launch date: November 6, 1973
Source: United States (US)
Launch site: AIR FORCE WESTERN TEST RANGE (AFWTR)

Note: This is SATELLITE DEBRIS
aabbcc
Your satellite tracking list
Your tracking list is empty




NASA's NSSDC Master Catalog

Two Line Element Set (TLE):
1  7142U 73086DG  19167.11055236  .00000045  00000-0  72745-3 0  9992
2  7142 101.8847 219.4375 0045088  77.8800 338.2678 12.31900804 50731
Source of the keplerian elements: AFSPC